Taunton, MA

2:51 AM EDT on April 25, 2017 (GMT -0400)
Taunton Municipal

Weather History for KTAN - January, 2012

Change the Weather History Date:

Wednesday, January 25, 2012

  Actual Average Record
Temperature  
Mean Temperature 38 °F -  
Max Temperature 43 °F 42 °F 57 °F (1953)
Min Temperature 33 °F 21 °F -7 °F (1961)
Degree Days  
Heating Degree Days 27    
Moisture  
Dew Point 25 °F    
Average Humidity 61    
Maximum Humidity 73    
Minimum Humidity 49    
Precipitation  
Precipitation 0.00 in - - ()
Sea Level Pressure  
Sea Level Pressure 30.16 in    
Wind  
Wind Speed 7 mph (West)    
Max Wind Speed 14 mph    
Max Gust Speed 23 mph    
Visibility 10 miles    
Events      
Averages and records for this station are not official NWS values.
T = Trace of Precipitation, MM = Missing Value Source: NWS Daily Summary

Daily Weather History Graph

Daily Weather History Graph

Search for Another Location

Airport or City:

Trip Planner

Search our weather history database for the weather conditions in past years. The results will help you decide how hot, cold, wet, or windy it might be!

Date:

Astronomy

Jan. 25, 2012 Rise Set
Actual Time 7:03 AM EST 4:49 PM EST
Civil Twilight 6:33 AM EST 5:19 PM EST
Nautical Twilight 5:59 AM EST 5:53 PM EST
Astronomical Twilight 5:26 AM EST 6:26 PM EST
Moon 7:58 AM EST 7:43 PM EST
Length of Visible Light 10h 46m
Length of Day
9h 46m
Waxing Crescent, 6% of the Moon is Illuminated
Jan 25
Waxing Crescent
Jan 30
First Quarter
Feb 7
Full
Feb 14
Last Quarter
Feb 21
New

Hourly Weather History & Observations

Time (EST) Temp. Windchill Dew Point Humidity Pressure Visibility Wind Dir Wind Speed Gust Speed Precip Events Conditions
12:52 AM 41.0 °F 35.2 °F 28.0 °F 60% 30.06 in 10.0 mi NW 9.2 mph 17.3 mph N/A   Overcast
1:52 AM 39.9 °F 34.5 °F 25.0 °F 55% 30.09 in 10.0 mi WNW 8.1 mph 16.1 mph N/A   Overcast
2:52 AM 37.0 °F 32.4 °F 24.1 °F 59% 30.09 in 10.0 mi WNW 5.8 mph - N/A   Clear
3:52 AM 36.0 °F 29.6 °F 25.0 °F 64% 30.11 in 10.0 mi West 8.1 mph - N/A   Clear
4:52 AM 34.0 °F 31.0 °F 23.0 °F 64% 30.13 in 10.0 mi West 3.5 mph - N/A   Clear
5:52 AM 33.1 °F - 23.0 °F 66% 30.14 in 10.0 mi Calm Calm - N/A   Partly Cloudy
6:52 AM 33.1 °F 28.7 °F 24.1 °F 70% 30.16 in 10.0 mi WSW 4.6 mph - N/A   Mostly Cloudy
8:52 AM 39.0 °F 32.3 °F 26.1 °F 60% 30.19 in 10.0 mi West 10.4 mph - N/A   Clear
9:52 AM 41.0 °F 34.3 °F 25.0 °F 53% 30.19 in 10.0 mi WNW 11.5 mph 21.9 mph N/A   Clear
10:52 AM 42.1 °F 34.9 °F 24.1 °F 49% 30.20 in 10.0 mi WNW 13.8 mph 23.0 mph N/A   Clear
11:52 AM 43.0 °F 38.8 °F 25.0 °F 49% 30.18 in 10.0 mi West 6.9 mph - N/A   Clear
12:52 PM 43.0 °F 37.7 °F 25.0 °F 49% 30.16 in 10.0 mi WNW 9.2 mph 17.3 mph N/A   Clear
1:52 PM 42.1 °F 35.2 °F 25.0 °F 51% 30.16 in 10.0 mi NW 12.7 mph 19.6 mph N/A   Clear
2:52 PM 42.1 °F 37.7 °F 25.0 °F 51% 30.15 in 10.0 mi Variable 6.9 mph - N/A   Clear
3:52 PM 41.0 °F 35.2 °F 25.0 °F 53% 30.14 in 10.0 mi West 9.2 mph - N/A   Clear
5:52 PM 36.0 °F 30.3 °F 25.0 °F 64% 30.19 in 10.0 mi West 6.9 mph - N/A   Clear
6:52 PM 36.0 °F 32.1 °F 26.1 °F 67% 30.19 in 10.0 mi West 4.6 mph - N/A   Clear
7:52 PM 35.1 °F 31.0 °F 25.0 °F 67% 30.19 in 10.0 mi West 4.6 mph - N/A   Clear
8:52 PM 35.1 °F 32.2 °F 25.0 °F 67% 30.18 in 10.0 mi West 3.5 mph - N/A   Clear
9:52 PM 34.0 °F - 26.1 °F 73% 30.18 in 10.0 mi Calm Calm - N/A   Clear
10:52 PM 34.0 °F - 26.1 °F 73% 30.18 in 10.0 mi Calm Calm - N/A   Mostly Cloudy
11:52 PM 34.0 °F 31.0 °F 26.1 °F 73% 30.16 in 10.0 mi WSW 3.5 mph - N/A   Scattered Clouds